Time,TemperatureF,DewpointF,PressureIn,WindDirection,WindDirectionDegrees,WindSpeedMPH,WindSpeedGustMPH,Humidity,HourlyPrecipIn,Conditions,Clouds,dailyrainin,SoftwareType,DateUTC
2013-09-12 00:02:00,76.3,61.4,30.05,West,264,0.0,0.0,60,0.00,CLR,,0.00,WeatherDisplay:10.37,2013-09-12 05:02:00,
2013-09-12 00:07:00,76.3,61.4,30.05,West,264,0.0,0.0,60,0.00,CLR,,0.00,WeatherDisplay:10.37,2013-09-12 05:07:00,
2013-09-12 00:12:00,76.3,61.4,30.05,West,264,0.0,0.0,60,0.00,CLR,,0.00,WeatherDisplay:10.37,2013-09-12 05:12:00,
2013-09-12 00:17:00,76.3,61.4,30.02,West,264,0.0,0.0,60,0.00,CLR,,0.00,WeatherDisplay:10.37,2013-09-12 05:17:00,
2013-09-12 00:22:00,76.1,61.2,30.02,West,264,0.0,0.0,60,0.00,CLR,,0.00,WeatherDisplay:10.37,2013-09-12 05:22:00,
2013-09-12 00:27:00,75.7,60.9,30.02,West,264,0.0,0.0,60,0.00,CLR,,0.00,WeatherDisplay:10.37,2013-09-12 05:27:00,
2013-09-12 00:32:00,75.6,60.7,30.05,West,264,0.0,0.0,60,0.00,CLR,,0.00,WeatherDisplay:10.37,2013-09-12 05:32:00,
2013-09-12 00:37:00,75.6,60.7,30.05,West,264,0.0,0.0,60,0.00,CLR,,0.00,WeatherDisplay:10.37,2013-09-12 05:37:00,
2013-09-12 00:42:00,75.6,60.7,30.05,West,264,0.0,0.0,60,0.00,CLR,,0.00,WeatherDisplay:10.37,2013-09-12 05:42:00,
2013-09-12 00:47:00,75.7,61.3,30.02,West,264,0.0,0.0,61,0.00,CLR,,0.00,WeatherDisplay:10.37,2013-09-12 05:47:00,
2013-09-12 00:52:00,75.9,61.5,30.02,West,264,0.0,0.0,61,0.00,CLR,,0.00,WeatherDisplay:10.37,2013-09-12 05:52:00,
2013-09-12 00:57:00,75.9,61.5,30.02,West,264,0.0,0.0,61,0.00,CLR,,0.00,WeatherDisplay:10.37,2013-09-12 05:57:00,
2013-09-12 01:02:00,75.9,61.5,30.02,West,264,0.0,0.0,61,0.00,CLR,,0.00,WeatherDisplay:10.37,2013-09-12 06:02:00,
2013-09-12 01:07:00,75.7,61.3,30.02,West,264,0.0,0.0,61,0.00,CLR,,0.00,WeatherDisplay:10.37,2013-09-12 06:07:00,
2013-09-12 01:12:00,75.6,61.2,30.02,West,264,0.0,0.0,61,0.00,CLR,,0.00,WeatherDisplay:10.37,2013-09-12 06:12:00,
2013-09-12 01:17:00,75.6,61.6,30.02,West,264,0.0,0.0,62,0.00,CLR,,0.00,WeatherDisplay:10.37,2013-09-12 06:17:00,
2013-09-12 01:22:00,75.7,61.8,30.02,West,264,0.0,0.0,62,0.00,CLR,,0.00,WeatherDisplay:10.37,2013-09-12 06:22:00,
2013-09-12 01:27:00,75.9,62.0,30.02,West,264,0.0,0.0,62,0.00,CLR,,0.00,WeatherDisplay:10.37,2013-09-12 06:27:00,
2013-09-12 01:32:00,75.9,62.0,30.02,West,264,0.0,0.0,62,0.00,CLR,,0.00,WeatherDisplay:10.37,2013-09-12 06:32:00,
2013-09-12 01:37:00,75.7,61.3,30.02,West,264,0.0,0.0,61,0.00,CLR,,0.00,WeatherDisplay:10.37,2013-09-12 06:37:00,
2013-09-12 01:42:00,75.4,61.0,30.02,West,264,0.0,0.0,61,0.00,CLR,,0.00,WeatherDisplay:10.37,2013-09-12 06:42:00,
2013-09-12 01:47:00,75.2,60.8,30.02,West,264,0.0,0.0,61,0.00,CLR,,0.00,WeatherDisplay:10.37,2013-09-12 06:47:00,
2013-09-12 01:52:00,75.2,61.3,30.02,West,264,0.0,0.0,62,0.00,CLR,,0.00,WeatherDisplay:10.37,2013-09-12 06:52:00,
2013-09-12 01:57:00,75.2,61.3,30.02,West,264,0.0,0.0,62,0.00,CLR,,0.00,WeatherDisplay:10.37,2013-09-12 06:57:00,
2013-09-12 02:02:00,75.4,61.5,30.02,West,264,0.0,0.0,62,0.00,CLR,,0.00,WeatherDisplay:10.37,2013-09-12 07:02:00,
2013-09-12 02:07:00,75.4,61.5,30.02,West,264,0.0,0.0,62,0.00,CLR,,0.00,WeatherDisplay:10.37,2013-09-12 07:07:00,
2013-09-12 02:12:00,75.4,61.5,30.02,West,264,0.0,0.0,62,0.00,CLR,,0.00,WeatherDisplay:10.37,2013-09-12 07:12:00,
2013-09-12 02:17:00,75.2,61.3,30.02,West,264,0.0,0.0,62,0.00,CLR,,0.00,WeatherDisplay:10.37,2013-09-12 07:17:00,
2013-09-12 02:22:00,75.0,61.6,30.02,West,264,0.0,0.0,63,0.00,CLR,,0.00,WeatherDisplay:10.37,2013-09-12 07:22:00,
2013-09-12 02:27:00,74.8,61.4,30.02,West,264,0.0,0.0,63,0.00,CLR,,0.00,WeatherDisplay:10.37,2013-09-12 07:27:00,
2013-09-12 02:32:00,75.0,61.6,30.02,West,264,0.0,0.0,63,0.00,CLR,,0.00,WeatherDisplay:10.37,2013-09-12 07:32:00,
2013-09-12 02:37:00,75.0,62.0,30.02,West,264,0.0,0.0,64,0.00,CLR,,0.00,WeatherDisplay:10.37,2013-09-12 07:37:00,
2013-09-12 02:42:00,75.2,61.7,30.02,West,264,0.0,0.0,63,0.00,CLR,,0.00,WeatherDisplay:10.37,2013-09-12 07:42:00,
2013-09-12 02:47:00,75.2,61.7,30.02,West,264,0.0,0.0,63,0.00,CLR,,0.00,WeatherDisplay:10.37,2013-09-12 07:47:00,
2013-09-12 02:52:00,75.0,61.6,30.02,West,264,0.0,0.0,63,0.00,CLR,,0.00,WeatherDisplay:10.37,2013-09-12 07:52:00,
2013-09-12 02:57:00,75.0,61.6,30.02,West,264,0.0,0.0,63,0.00,CLR,,0.00,WeatherDisplay:10.37,2013-09-12 07:57:00,
2013-09-12 03:02:00,74.8,61.4,30.02,West,264,0.0,0.0,63,0.00,CLR,,0.00,WeatherDisplay:10.37,2013-09-12 08:02:00,
2013-09-12 03:07:00,74.8,61.4,30.02,West,264,0.0,0.0,63,0.00,CLR,,0.00,WeatherDisplay:10.37,2013-09-12 08:07:00,
2013-09-12 03:12:00,74.7,61.2,30.02,West,264,0.0,0.0,63,0.00,CLR,,0.00,WeatherDisplay:10.37,2013-09-12 08:12:00,
2013-09-12 03:17:00,74.7,61.2,30.02,West,264,0.0,0.0,63,0.00,CLR,,0.00,WeatherDisplay:10.37,2013-09-12 08:17:00,
2013-09-12 03:22:00,74.7,61.2,30.02,West,264,0.0,0.0,63,0.00,CLR,,0.00,WeatherDisplay:10.37,2013-09-12 08:22:00,
2013-09-12 03:27:00,74.5,61.1,30.02,West,264,0.0,0.0,63,0.00,CLR,,0.00,WeatherDisplay:10.37,2013-09-12 08:27:00,
2013-09-12 03:32:00,74.5,61.1,30.02,West,264,0.0,0.0,63,0.00,CLR,,0.00,WeatherDisplay:10.37,2013-09-12 08:32:00,
2013-09-12 03:37:00,74.7,61.2,30.02,West,264,0.0,0.0,63,0.00,CLR,,0.00,WeatherDisplay:10.37,2013-09-12 08:37:00,
2013-09-12 03:42:00,74.5,61.1,30.02,West,264,0.0,0.0,63,0.00,CLR,,0.00,WeatherDisplay:10.37,2013-09-12 08:42:00,
2013-09-12 03:47:00,74.3,60.9,30.02,West,264,0.0,0.0,63,0.00,CLR,,0.00,WeatherDisplay:10.37,2013-09-12 08:47:00,
2013-09-12 03:52:00,74.3,61.3,30.02,West,264,0.0,0.0,64,0.00,CLR,,0.00,WeatherDisplay:10.37,2013-09-12 08:52:00,
2013-09-12 03:57:00,74.5,61.5,30.02,West,264,0.0,0.0,64,0.00,CLR,,0.00,WeatherDisplay:10.37,2013-09-12 08:57:00,
2013-09-12 04:02:00,74.5,61.5,30.02,West,264,0.0,0.0,64,0.00,CLR,,0.00,WeatherDisplay:10.37,2013-09-12 09:02:00,
2013-09-12 04:07:00,74.3,61.3,30.02,West,264,0.0,0.0,64,0.00,CLR,,0.00,WeatherDisplay:10.37,2013-09-12 09:07:00,
2013-09-12 04:12:00,74.1,61.2,30.02,West,264,0.0,0.0,64,0.00,CLR,,0.00,WeatherDisplay:10.37,2013-09-12 09:12:00,
2013-09-12 04:17:00,74.1,61.2,30.02,West,264,0.0,0.0,64,0.00,CLR,,0.00,WeatherDisplay:10.37,2013-09-12 09:17:00,
2013-09-12 04:22:00,73.9,61.0,30.02,West,264,0.0,0.0,64,0.00,CLR,,0.00,WeatherDisplay:10.37,2013-09-12 09:22:00,
2013-09-12 04:27:00,73.9,61.0,30.02,West,264,0.0,0.0,64,0.00,CLR,,0.00,WeatherDisplay:10.37,2013-09-12 09:27:00,
2013-09-12 04:32:00,74.1,61.2,30.02,West,264,0.0,0.0,64,0.00,CLR,,0.00,WeatherDisplay:10.37,2013-09-12 09:32:00,
2013-09-12 04:37:00,74.1,61.2,30.02,West,264,0.0,0.0,64,0.00,CLR,,0.00,WeatherDisplay:10.37,2013-09-12 09:37:00,
2013-09-12 04:42:00,73.9,61.0,30.02,West,264,0.0,0.0,64,0.00,CLR,,0.00,WeatherDisplay:10.37,2013-09-12 09:42:00,
2013-09-12 04:47:00,73.9,61.0,30.02,West,264,0.0,0.0,64,0.00,CLR,,0.00,WeatherDisplay:10.37,2013-09-12 09:47:00,
2013-09-12 04:52:00,73.9,61.4,30.02,West,264,0.0,0.0,65,0.00,CLR,,0.00,WeatherDisplay:10.37,2013-09-12 09:52:00,
2013-09-12 04:57:00,74.1,61.6,30.02,West,264,0.0,0.0,65,0.00,CLR,,0.00,WeatherDisplay:10.37,2013-09-12 09:57:00,
2013-09-12 05:02:00,74.1,61.6,30.02,West,264,0.0,0.0,65,0.00,CLR,,0.00,WeatherDisplay:10.37,2013-09-12 10:02:00,
2013-09-12 05:07:00,74.1,61.6,30.02,West,264,0.0,0.0,65,0.00,CLR,,0.00,WeatherDisplay:10.37,2013-09-12 10:07:00,
2013-09-12 05:12:00,73.9,61.0,30.02,West,264,0.0,0.0,64,0.00,CLR,,0.00,WeatherDisplay:10.37,2013-09-12 10:12:00,
2013-09-12 05:17:00,73.9,61.0,30.02,West,264,0.0,0.0,64,0.00,CLR,,0.00,WeatherDisplay:10.37,2013-09-12 10:17:00,
2013-09-12 05:22:00,73.9,61.0,30.02,West,264,0.0,0.0,64,0.00,CLR,,0.00,WeatherDisplay:10.37,2013-09-12 10:22:00,
2013-09-12 05:27:00,73.8,60.8,30.02,West,264,0.0,0.0,64,0.00,CLR,,0.00,WeatherDisplay:10.37,2013-09-12 10:27:00,
2013-09-12 05:32:00,73.8,60.8,30.02,West,264,0.0,0.0,64,0.00,CLR,,0.00,WeatherDisplay:10.37,2013-09-12 10:32:00,
2013-09-12 05:37:00,73.6,60.6,30.02,West,264,0.0,0.0,64,0.00,CLR,,0.00,WeatherDisplay:10.37,2013-09-12 10:37:00,
2013-09-12 05:42:00,73.4,60.5,30.02,West,264,0.0,0.0,64,0.00,CLR,,0.00,WeatherDisplay:10.37,2013-09-12 10:42:00,
2013-09-12 05:47:00,73.4,60.5,30.02,West,264,0.0,0.0,64,0.00,CLR,,0.00,WeatherDisplay:10.37,2013-09-12 10:47:00,
2013-09-12 05:52:00,73.4,60.5,30.02,West,264,0.0,0.0,64,0.00,CLR,,0.00,WeatherDisplay:10.37,2013-09-12 10:52:00,
2013-09-12 05:57:00,73.4,60.5,30.02,West,264,0.0,0.0,64,0.00,CLR,,0.00,WeatherDisplay:10.37,2013-09-12 10:57:00,
2013-09-12 06:02:00,73.2,60.7,30.02,West,264,0.0,0.0,65,0.00,CLR,,0.00,WeatherDisplay:10.37,2013-09-12 11:02:00,
2013-09-12 06:07:00,73.2,60.7,30.02,West,264,0.0,0.0,65,0.00,CLR,,0.00,WeatherDisplay:10.37,2013-09-12 11:07:00,
2013-09-12 06:12:00,73.4,60.9,30.02,West,264,0.0,0.0,65,0.00,CLR,,0.00,WeatherDisplay:10.37,2013-09-12 11:12:00,
2013-09-12 06:17:00,73.8,61.7,30.02,West,264,0.0,0.0,66,0.00,CLR,,0.00,WeatherDisplay:10.37,2013-09-12 11:17:00,
2013-09-12 06:22:00,73.8,61.7,30.02,West,264,0.0,0.0,66,0.00,CLR,,0.00,WeatherDisplay:10.37,2013-09-12 11:22:00,
2013-09-12 06:27:00,73.8,61.7,30.02,West,264,0.0,0.0,66,0.00,CLR,,0.00,WeatherDisplay:10.37,2013-09-12 11:27:00,
2013-09-12 06:32:00,73.8,61.7,30.02,West,264,0.0,0.0,66,0.00,CLR,,0.00,WeatherDisplay:10.37,2013-09-12 11:32:00,
2013-09-12 06:37:00,73.8,61.7,30.02,West,264,0.0,0.0,66,0.00,CLR,,0.00,WeatherDisplay:10.37,2013-09-12 11:37:00,
2013-09-12 06:42:00,73.9,62.3,30.02,West,264,0.0,0.0,67,0.00,CLR,,0.00,WeatherDisplay:10.37,2013-09-12 11:42:00,
2013-09-12 06:47:00,73.9,62.3,30.02,West,264,0.0,0.0,67,0.00,CLR,,0.00,WeatherDisplay:10.37,2013-09-12 11:47:00,
2013-09-12 06:52:00,73.9,62.3,30.02,West,264,0.0,0.0,67,0.00,CLR,,0.00,WeatherDisplay:10.37,2013-09-12 11:52:00,
2013-09-12 06:57:00,73.8,61.7,30.02,West,264,0.0,0.0,66,0.00,CLR,,0.00,WeatherDisplay:10.37,2013-09-12 11:57:00,
2013-09-12 07:02:00,73.8,61.7,30.02,West,264,0.0,0.0,66,0.00,CLR,,0.00,WeatherDisplay:10.37,2013-09-12 12:02:00,
2013-09-12 07:07:00,73.8,61.7,30.02,West,264,0.0,0.0,66,0.00,CLR,,0.00,WeatherDisplay:10.37,2013-09-12 12:07:00,
2013-09-12 07:12:00,73.8,61.7,30.02,West,264,0.0,0.0,66,0.00,CLR,,0.00,WeatherDisplay:10.37,2013-09-12 12:12:00,
2013-09-12 07:17:00,73.8,61.7,30.02,West,264,0.0,0.0,66,0.00,CLR,,0.00,WeatherDisplay:10.37,2013-09-12 12:17:00,
2013-09-12 07:22:00,73.8,61.7,30.02,West,263,0.0,0.0,66,0.00,CLR,,0.00,WeatherDisplay:10.37,2013-09-12 12:22:00,
2013-09-12 07:27:00,73.9,62.3,30.02,West,264,0.0,0.0,67,0.00,CLR,,0.00,WeatherDisplay:10.37,2013-09-12 12:27:00,
2013-09-12 07:32:00,74.1,62.5,30.02,West,264,0.0,0.0,67,0.00,CLR,,0.00,WeatherDisplay:10.37,2013-09-12 12:32:00,
2013-09-12 07:37:00,74.1,62.5,30.02,West,264,0.0,0.0,67,0.00,CLR,,0.00,WeatherDisplay:10.37,2013-09-12 12:37:00,
2013-09-12 07:42:00,74.3,62.6,30.02,West,264,0.0,0.0,67,0.00,CLR,,0.00,WeatherDisplay:10.37,2013-09-12 12:42:00,
2013-09-12 07:47:00,74.3,62.6,30.02,West,264,0.0,0.0,67,0.00,CLR,,0.00,WeatherDisplay:10.37,2013-09-12 12:47:00,
2013-09-12 07:52:00,74.5,62.8,30.02,West,264,0.0,0.0,67,0.00,CLR,,0.00,WeatherDisplay:10.37,2013-09-12 12:52:00,
2013-09-12 07:57:00,74.5,62.8,30.02,West,264,0.0,0.0,67,0.00,CLR,,0.00,WeatherDisplay:10.37,2013-09-12 12:57:00,
2013-09-12 08:02:00,74.7,63.0,30.02,West,264,0.0,0.0,67,0.00,CLR,,0.00,WeatherDisplay:10.37,2013-09-12 13:02:00,
2013-09-12 08:07:00,74.7,63.0,30.02,West,264,0.0,0.0,67,0.00,CLR,,0.00,WeatherDisplay:10.37,2013-09-12 13:07:00,
2013-09-12 08:12:00,74.8,63.1,30.02,West,264,0.0,0.0,67,0.00,CLR,,0.00,WeatherDisplay:10.37,2013-09-12 13:12:00,
2013-09-12 08:17:00,75.2,63.1,30.05,West,264,0.0,0.0,66,0.00,CLR,,0.00,WeatherDisplay:10.37,2013-09-12 13:17:00,
2013-09-12 08:22:00,75.2,63.1,30.05,West,264,0.0,0.0,66,0.00,CLR,,0.00,WeatherDisplay:10.37,2013-09-12 13:22:00,
2013-09-12 08:27:00,75.6,63.4,30.05,West,264,0.0,0.0,66,0.00,CLR,,0.00,WeatherDisplay:10.37,2013-09-12 13:27:00,
2013-09-12 08:32:00,75.7,63.6,30.05,West,264,0.0,0.0,66,0.00,CLR,,0.00,WeatherDisplay:10.37,2013-09-12 13:32:00,
2013-09-12 08:37:00,75.9,63.7,30.05,West,264,0.0,0.0,66,0.00,CLR,,0.00,WeatherDisplay:10.37,2013-09-12 13:37:00,
2013-09-12 08:42:00,76.3,64.1,30.05,West,264,0.0,0.0,66,0.00,CLR,,0.00,WeatherDisplay:10.37,2013-09-12 13:42:00,
2013-09-12 08:47:00,76.6,64.4,30.05,West,264,0.0,0.0,66,0.00,CLR,,0.00,WeatherDisplay:10.37,2013-09-12 13:47:00,
2013-09-12 08:52:00,77.0,64.3,30.05,West,264,0.0,0.0,65,0.00,CLR,,0.00,WeatherDisplay:10.37,2013-09-12 13:52:00,
2013-09-12 08:57:00,77.5,64.8,30.05,West,264,0.0,0.0,65,0.00,CLR,,0.00,WeatherDisplay:10.37,2013-09-12 13:57:00,
2013-09-12 09:02:00,78.1,64.9,30.02,West,264,0.0,0.0,64,0.00,CLR,,0.00,WeatherDisplay:10.37,2013-09-12 14:02:00,
2013-09-12 09:07:00,78.3,64.6,30.02,West,259,0.0,0.0,63,0.00,CLR,,0.00,WeatherDisplay:10.37,2013-09-12 14:07:00,
2013-09-12 09:12:00,78.4,64.3,30.02,West,259,0.0,0.0,62,0.00,CLR,,0.00,WeatherDisplay:10.37,2013-09-12 14:12:00,
2013-09-12 09:17:00,78.4,64.3,30.05,West,259,0.0,0.0,62,0.00,CLR,,0.00,WeatherDisplay:10.37,2013-09-12 14:17:00,
2013-09-12 09:22:00,78.6,64.0,30.05,West,259,0.0,0.0,61,0.00,CLR,,0.00,WeatherDisplay:10.37,2013-09-12 14:22:00,
2013-09-12 09:27:00,78.8,63.7,30.05,West,259,0.0,0.0,60,0.00,CLR,,0.00,WeatherDisplay:10.37,2013-09-12 14:27:00,
2013-09-12 09:32:00,79.0,63.9,30.02,West,259,0.0,0.0,60,0.00,CLR,,0.00,WeatherDisplay:10.37,2013-09-12 14:32:00,
2013-09-12 09:37:00,79.0,63.4,30.02,West,259,0.0,0.0,59,0.00,CLR,,0.00,WeatherDisplay:10.37,2013-09-12 14:37:00,
2013-09-12 09:42:00,79.0,63.4,30.02,West,259,0.0,0.0,59,0.00,CLR,,0.00,WeatherDisplay:10.37,2013-09-12 14:42:00,
2013-09-12 09:47:00,79.0,63.4,30.02,West,259,0.0,0.0,59,0.00,CLR,,0.00,WeatherDisplay:10.37,2013-09-12 14:47:00,
2013-09-12 09:52:00,79.2,63.1,30.02,West,259,0.0,0.0,58,0.00,CLR,,0.00,WeatherDisplay:10.37,2013-09-12 14:52:00,
2013-09-12 09:57:00,79.3,63.3,30.02,West,260,2.7,3.5,58,0.00,CLR,,0.00,WeatherDisplay:10.37,2013-09-12 14:57:00,
2013-09-12 10:02:00,79.7,63.6,30.02,West,273,0.0,2.3,58,0.00,CLR,,0.00,WeatherDisplay:10.37,2013-09-12 15:02:00,
2013-09-12 10:07:00,80.1,64.0,30.02,West,269,0.0,0.0,58,0.00,CLR,,0.00,WeatherDisplay:10.37,2013-09-12 15:07:00,
2013-09-12 10:12:00,80.2,63.6,30.02,NW,317,0.0,2.3,57,0.00,CLR,,0.00,WeatherDisplay:10.37,2013-09-12 15:12:00,
2013-09-12 10:17:00,80.6,63.5,30.02,WSW,257,0.0,0.0,56,0.00,CLR,,0.00,WeatherDisplay:10.37,2013-09-12 15:17:00,
2013-09-12 10:22:00,81.0,63.8,30.02,NW,317,0.0,2.3,56,0.00,CLR,,0.00,WeatherDisplay:10.37,2013-09-12 15:22:00,
2013-09-12 10:27:00,81.3,63.6,30.02,West,259,3.1,5.8,55,0.00,CLR,,0.00,WeatherDisplay:10.37,2013-09-12 15:27:00,
2013-09-12 10:32:00,81.7,63.9,30.02,West,276,0.0,0.0,55,0.00,CLR,,0.00,WeatherDisplay:10.37,2013-09-12 15:32:00,
2013-09-12 10:37:00,82.2,63.4,30.02,West,278,0.0,0.0,53,0.00,CLR,,0.00,WeatherDisplay:10.37,2013-09-12 15:37:00,
2013-09-12 10:42:00,82.9,63.5,30.02,West,276,2.2,3.5,52,0.00,CLR,,0.00,WeatherDisplay:10.37,2013-09-12 15:42:00,
2013-09-12 10:47:00,83.5,62.9,30.02,West,281,2.7,3.5,50,0.00,CLR,,0.00,WeatherDisplay:10.37,2013-09-12 15:47:00,
2013-09-12 10:52:00,84.0,62.8,30.02,West,263,0.0,3.5,49,0.00,CLR,,0.00,WeatherDisplay:10.37,2013-09-12 15:52:00,
2013-09-12 10:57:00,84.6,62.1,30.02,NNE,18,0.0,0.0,47,0.00,CLR,,0.00,WeatherDisplay:10.37,2013-09-12 15:57:00,
2013-09-12 11:02:00,84.9,61.8,30.02,WSW,252,0.0,2.3,46,0.00,CLR,,0.00,WeatherDisplay:10.37,2013-09-12 16:02:00,
2013-09-12 11:07:00,85.3,62.2,30.02,WNW,289,0.0,0.0,46,0.00,CLR,,0.00,WeatherDisplay:10.37,2013-09-12 16:07:00,
2013-09-12 11:12:00,85.6,62.5,30.02,WNW,284,3.6,3.6,46,0.00,CLR,,0.00,WeatherDisplay:10.37,2013-09-12 16:12:00,
2013-09-12 11:17:00,85.8,62.0,30.02,North,353,0.0,0.0,45,0.00,CLR,,0.00,WeatherDisplay:10.37,2013-09-12 16:17:00,
2013-09-12 11:22:00,86.2,61.7,30.02,ENE,75,2.7,3.5,44,0.00,CLR,,0.00,WeatherDisplay:10.37,2013-09-12 16:22:00,
2013-09-12 11:27:00,86.7,62.2,30.02,WSW,258,0.0,0.0,44,0.00,CLR,,0.00,WeatherDisplay:10.37,2013-09-12 16:27:00,
2013-09-12 11:32:00,87.1,62.5,30.02,WNW,289,3.6,5.8,44,0.00,CLR,,0.00,WeatherDisplay:10.37,2013-09-12 16:32:00,
2013-09-12 11:37:00,87.6,63.0,30.02,NNE,23,0.0,0.0,44,0.00,CLR,,0.00,WeatherDisplay:10.37,2013-09-12 16:37:00,
2013-09-12 11:42:00,87.8,61.2,30.02,NNE,16,2.2,3.5,41,0.00,CLR,,0.00,WeatherDisplay:10.37,2013-09-12 16:42:00,
2013-09-12 11:47:00,88.0,61.3,30.02,NE,46,0.0,0.0,41,0.00,CLR,,0.00,WeatherDisplay:10.37,2013-09-12 16:47:00,
2013-09-12 11:52:00,88.0,61.3,30.02,North,0,2.2,3.5,41,0.00,CLR,,0.00,WeatherDisplay:10.37,2013-09-12 16:52:00,
2013-09-12 11:57:00,88.0,61.3,30.02,WNW,297,3.1,3.5,41,0.00,CLR,,0.00,WeatherDisplay:10.37,2013-09-12 16:57:00,
2013-09-12 12:02:00,88.2,61.5,30.02,North,8,0.0,2.3,41,0.00,CLR,,0.00,WeatherDisplay:10.37,2013-09-12 17:02:00,
2013-09-12 12:07:00,88.3,61.7,30.02,NE,43,3.6,3.6,41,0.00,CLR,,0.00,WeatherDisplay:10.37,2013-09-12 17:07:00,
2013-09-12 12:12:00,88.2,61.5,30.02,NNE,15,2.2,3.5,41,0.00,CLR,,0.00,WeatherDisplay:10.37,2013-09-12 17:12:00,
2013-09-12 12:17:00,88.2,61.5,30.02,NE,55,2.2,2.3,41,0.00,CLR,,0.00,WeatherDisplay:10.37,2013-09-12 17:17:00,
2013-09-12 12:22:00,88.3,61.7,30.02,West,277,0.0,0.0,41,0.00,CLR,,0.00,WeatherDisplay:10.37,2013-09-12 17:22:00,
2013-09-12 12:27:00,88.3,61.7,30.02,South,175,0.0,0.0,41,0.00,CLR,,0.00,WeatherDisplay:10.37,2013-09-12 17:27:00,
2013-09-12 12:32:00,88.5,61.8,30.02,ENE,70,0.0,2.2,41,0.00,CLR,,0.00,WeatherDisplay:10.37,2013-09-12 17:32:00,
2013-09-12 12:37:00,88.5,60.4,30.02,NE,49,3.6,3.6,39,0.00,CLR,,0.00,WeatherDisplay:10.37,2013-09-12 17:37:00,
2013-09-12 12:42:00,88.7,60.6,30.02,North,353,2.2,3.5,39,0.00,CLR,,0.00,WeatherDisplay:10.37,2013-09-12 17:42:00,
2013-09-12 12:47:00,88.9,62.1,30.02,NW,304,2.2,3.5,41,0.00,CLR,,0.00,WeatherDisplay:10.37,2013-09-12 17:47:00,
2013-09-12 12:52:00,89.2,61.0,30.02,NNE,28,0.0,3.5,39,0.00,CLR,,0.00,WeatherDisplay:10.37,2013-09-12 17:52:00,
2013-09-12 12:57:00,89.4,61.2,30.02,North,357,0.0,0.0,39,0.00,CLR,,0.00,WeatherDisplay:10.37,2013-09-12 17:57:00,
2013-09-12 13:02:00,89.6,60.6,29.99,NE,43,2.2,3.5,38,0.00,CLR,,0.00,WeatherDisplay:10.37,2013-09-12 18:02:00,
2013-09-12 13:07:00,89.4,61.2,29.99,ENE,59,2.2,3.5,39,0.00,CLR,,0.00,WeatherDisplay:10.37,2013-09-12 18:07:00,
2013-09-12 13:12:00,89.4,61.2,29.99,ENE,60,0.0,0.0,39,0.00,CLR,,0.00,WeatherDisplay:10.37,2013-09-12 18:12:00,
2013-09-12 13:17:00,89.4,61.2,29.99,NNW,339,0.0,0.0,39,0.00,CLR,,0.00,WeatherDisplay:10.37,2013-09-12 18:17:00,
2013-09-12 13:22:00,89.6,60.6,29.99,WNW,294,0.0,2.7,38,0.00,CLR,,0.00,WeatherDisplay:10.37,2013-09-12 18:22:00,
2013-09-12 13:27:00,90.0,60.9,29.99,North,0,0.0,0.0,38,0.00,CLR,,0.00,WeatherDisplay:10.37,2013-09-12 18:27:00,
2013-09-12 13:32:00,90.1,61.1,29.99,West,272,3.1,3.1,38,0.00,CLR,,0.00,WeatherDisplay:10.37,2013-09-12 18:32:00,
2013-09-12 13:37:00,90.1,61.1,29.99,NNE,24,2.7,3.5,38,0.00,CLR,,0.00,WeatherDisplay:10.37,2013-09-12 18:37:00,
2013-09-12 13:42:00,89.8,60.8,29.99,ENE,63,0.0,0.0,38,0.00,CLR,,0.00,WeatherDisplay:10.37,2013-09-12 18:42:00,
2013-09-12 13:47:00,89.6,60.6,29.99,West,272,0.0,0.0,38,0.00,CLR,,0.00,WeatherDisplay:10.37,2013-09-12 18:47:00,
2013-09-12 13:52:00,89.4,61.2,29.99,NNE,19,0.0,2.3,39,0.00,CLR,,0.00,WeatherDisplay:10.37,2013-09-12 18:52:00,
2013-09-12 13:57:00,89.1,60.9,29.99,NNE,15,0.0,2.3,39,0.00,CLR,,0.00,WeatherDisplay:10.37,2013-09-12 18:57:00,
2013-09-12 14:02:00,88.9,60.7,29.99,North,353,0.0,0.0,39,0.00,CLR,,0.00,WeatherDisplay:10.37,2013-09-12 19:02:00,
2013-09-12 14:07:00,89.2,61.0,29.99,North,0,2.2,3.6,39,0.00,CLR,,0.00,WeatherDisplay:10.37,2013-09-12 19:07:00,
2013-09-12 14:12:00,90.0,60.9,29.99,North,0,0.0,3.5,38,0.00,CLR,,0.00,WeatherDisplay:10.37,2013-09-12 19:12:00,
2013-09-12 14:17:00,90.3,61.3,29.96,North,4,3.1,3.5,38,0.00,CLR,,0.00,WeatherDisplay:10.37,2013-09-12 19:17:00,
2013-09-12 14:22:00,90.1,61.1,29.96,NNE,17,2.2,3.5,38,0.00,CLR,,0.00,WeatherDisplay:10.37,2013-09-12 19:22:00,
2013-09-12 14:27:00,90.0,60.9,29.96,North,2,0.0,3.5,38,0.00,CLR,,0.00,WeatherDisplay:10.37,2013-09-12 19:27:00,
2013-09-12 14:32:00,89.8,60.8,29.96,NW,321,0.0,0.0,38,0.00,CLR,,0.00,WeatherDisplay:10.37,2013-09-12 19:32:00,
2013-09-12 14:37:00,89.8,60.8,29.96,NW,311,0.0,3.5,38,0.00,CLR,,0.00,WeatherDisplay:10.37,2013-09-12 19:37:00,
2013-09-12 14:42:00,89.8,60.8,29.96,North,8,3.1,3.5,38,0.00,CLR,,0.00,WeatherDisplay:10.37,2013-09-12 19:42:00,
2013-09-12 14:47:00,89.6,60.6,29.96,North,5,2.7,3.5,38,0.00,CLR,,0.00,WeatherDisplay:10.37,2013-09-12 19:47:00,
2013-09-12 14:52:00,89.4,61.2,29.96,North,7,3.1,3.5,39,0.00,CLR,,0.00,WeatherDisplay:10.37,2013-09-12 19:52:00,
2013-09-12 14:57:00,89.1,60.9,29.96,NE,52,2.2,2.7,39,0.00,CLR,,0.00,WeatherDisplay:10.37,2013-09-12 19:57:00,
2013-09-12 15:02:00,88.7,60.6,29.96,NE,49,0.0,2.3,39,0.00,CLR,,0.00,WeatherDisplay:10.37,2013-09-12 20:02:00,
2013-09-12 15:07:00,88.5,60.4,29.96,NNE,26,0.0,2.3,39,0.00,CLR,,0.00,WeatherDisplay:10.37,2013-09-12 20:07:00,
2013-09-12 15:12:00,88.3,60.2,29.96,ENE,61,0.0,0.0,39,0.00,CLR,,0.00,WeatherDisplay:10.37,2013-09-12 20:12:00,
2013-09-12 15:17:00,88.3,60.2,29.93,NE,52,0.0,0.0,39,0.00,CLR,,0.00,WeatherDisplay:10.37,2013-09-12 20:17:00,
2013-09-12 15:22:00,88.5,60.4,29.93,North,2,0.0,0.0,39,0.00,CLR,,0.00,WeatherDisplay:10.37,2013-09-12 20:22:00,
2013-09-12 15:27:00,88.5,60.4,29.93,NNE,15,2.2,3.5,39,0.00,CLR,,0.00,WeatherDisplay:10.37,2013-09-12 20:27:00,
2013-09-12 15:32:00,88.7,60.6,29.93,South,180,0.0,0.0,39,0.00,CLR,,0.00,WeatherDisplay:10.37,2013-09-12 20:32:00,
2013-09-12 15:37:00,88.9,60.7,29.93,North,10,0.0,2.3,39,0.00,CLR,,0.00,WeatherDisplay:10.37,2013-09-12 20:37:00,
2013-09-12 15:42:00,88.9,60.7,29.93,North,3,2.7,3.5,39,0.00,CLR,,0.00,WeatherDisplay:10.37,2013-09-12 20:42:00,
2013-09-12 15:47:00,89.1,60.9,29.93,North,357,0.0,2.3,39,0.00,CLR,,0.00,WeatherDisplay:10.37,2013-09-12 20:47:00,
2013-09-12 15:52:00,89.2,61.0,29.93,WNW,297,0.0,0.0,39,0.00,CLR,,0.00,WeatherDisplay:10.37,2013-09-12 20:52:00,
2013-09-12 15:57:00,89.2,61.0,29.93,SSW,201,2.7,2.7,39,0.00,CLR,,0.00,WeatherDisplay:10.37,2013-09-12 20:57:00,
2013-09-12 16:02:00,89.2,61.0,29.93,West,260,0.0,0.0,39,0.00,CLR,,0.00,WeatherDisplay:10.37,2013-09-12 21:02:00,
2013-09-12 16:07:00,89.2,61.0,29.93,NNE,25,0.0,3.5,39,0.00,CLR,,0.00,WeatherDisplay:10.37,2013-09-12 21:07:00,
2013-09-12 16:12:00,89.1,60.9,29.93,SSW,210,0.0,2.3,39,0.00,CLR,,0.00,WeatherDisplay:10.37,2013-09-12 21:12:00,
2013-09-12 16:17:00,89.1,60.9,29.93,North,3,0.0,0.0,39,0.00,CLR,,0.00,WeatherDisplay:10.37,2013-09-12 21:17:00,
2013-09-12 16:22:00,88.9,60.7,29.93,North,5,0.0,0.0,39,0.00,CLR,,0.00,WeatherDisplay:10.37,2013-09-12 21:22:00,
2013-09-12 16:27:00,88.7,60.6,29.93,North,3,0.0,0.0,39,0.00,CLR,,0.00,WeatherDisplay:10.37,2013-09-12 21:27:00,
2013-09-12 16:32:00,88.5,60.4,29.93,NNW,340,0.0,0.0,39,0.00,CLR,,0.00,WeatherDisplay:10.37,2013-09-12 21:32:00,
2013-09-12 16:37:00,88.7,60.6,29.93,NNE,32,0.0,3.5,39,0.00,CLR,,0.00,WeatherDisplay:10.37,2013-09-12 21:37:00,
2013-09-12 16:42:00,88.7,60.6,29.93,WNW,293,0.0,0.0,39,0.00,CLR,,0.00,WeatherDisplay:10.37,2013-09-12 21:42:00,
2013-09-12 16:47:00,88.3,60.2,29.93,NNE,19,6.7,8.1,39,0.00,CLR,,0.00,WeatherDisplay:10.37,2013-09-12 21:47:00,
2013-09-12 16:52:00,87.1,59.1,29.93,ENE,71,3.6,3.6,39,0.00,CLR,,0.00,WeatherDisplay:10.37,2013-09-12 21:52:00,
2013-09-12 16:57:00,85.8,58.0,29.93,NE,36,3.6,3.6,39,0.00,CLR,,0.00,WeatherDisplay:10.37,2013-09-12 21:57:00,
2013-09-12 17:02:00,84.7,57.0,29.93,NE,48,2.7,3.5,39,0.00,CLR,,0.00,WeatherDisplay:10.37,2013-09-12 22:02:00,
2013-09-12 17:07:00,83.8,56.9,29.93,NNE,31,2.2,3.5,40,0.00,CLR,,0.00,WeatherDisplay:10.37,2013-09-12 22:07:00,
2013-09-12 17:12:00,83.1,56.3,29.93,NNE,20,0.0,0.0,40,0.00,CLR,,0.00,WeatherDisplay:10.37,2013-09-12 22:12:00,
2013-09-12 17:17:00,82.4,55.7,29.93,NNE,31,3.1,3.5,40,0.00,CLR,,0.00,WeatherDisplay:10.37,2013-09-12 22:17:00,
2013-09-12 17:22:00,81.9,55.2,29.93,NNE,23,0.0,0.0,40,0.00,CLR,,0.00,WeatherDisplay:10.37,2013-09-12 22:22:00,
2013-09-12 17:27:00,81.5,54.8,29.93,NNE,25,0.0,0.0,40,0.00,CLR,,0.00,WeatherDisplay:10.37,2013-09-12 22:27:00,
2013-09-12 17:32:00,81.1,54.5,29.93,SE,141,0.0,0.0,40,0.00,CLR,,0.00,WeatherDisplay:10.37,2013-09-12 22:32:00,
2013-09-12 17:37:00,81.0,54.4,29.93,SE,145,0.0,0.0,40,0.00,CLR,,0.00,WeatherDisplay:10.37,2013-09-12 22:37:00,
2013-09-12 17:42:00,80.8,54.2,29.93,SE,145,0.0,0.0,40,0.00,CLR,,0.00,WeatherDisplay:10.37,2013-09-12 22:42:00,
2013-09-12 17:47:00,80.8,54.2,29.93,SE,145,0.0,0.0,40,0.00,CLR,,0.00,WeatherDisplay:10.37,2013-09-12 22:47:00,
2013-09-12 17:52:00,80.8,54.2,29.93,SE,145,0.0,0.0,40,0.00,CLR,,0.00,WeatherDisplay:10.37,2013-09-12 22:52:00,
2013-09-12 17:57:00,80.8,54.2,29.93,SE,145,0.0,0.0,40,0.00,CLR,,0.00,WeatherDisplay:10.37,2013-09-12 22:57:00,
2013-09-12 18:02:00,80.6,54.0,29.93,SE,144,0.0,0.0,40,0.00,CLR,,0.00,WeatherDisplay:10.37,2013-09-12 23:02:00,
2013-09-12 18:07:00,80.4,54.6,29.93,SE,144,0.0,0.0,41,0.00,CLR,,0.00,WeatherDisplay:10.37,2013-09-12 23:07:00,
2013-09-12 18:12:00,80.1,54.2,29.93,SE,144,0.0,0.0,41,0.00,CLR,,0.00,WeatherDisplay:10.37,2013-09-12 23:12:00,
2013-09-12 18:17:00,79.7,55.2,29.93,SE,144,0.0,0.0,43,0.00,CLR,,0.00,WeatherDisplay:10.37,2013-09-12 23:17:00,
2013-09-12 18:22:00,79.5,55.1,29.93,SE,144,0.0,0.0,43,0.00,CLR,,0.00,WeatherDisplay:10.37,2013-09-12 23:22:00,
2013-09-12 18:27:00,79.2,54.7,29.93,SE,144,0.0,0.0,43,0.00,CLR,,0.00,WeatherDisplay:10.37,2013-09-12 23:27:00,
2013-09-12 18:32:00,79.0,54.6,29.93,SE,144,0.0,0.0,43,0.00,CLR,,0.00,WeatherDisplay:10.37,2013-09-12 23:32:00,
2013-09-12 18:37:00,79.2,54.7,29.93,SE,144,0.0,0.0,43,0.00,CLR,,0.00,WeatherDisplay:10.37,2013-09-12 23:37:00,
2013-09-12 18:42:00,79.2,54.7,29.93,SE,144,0.0,0.0,43,0.00,CLR,,0.00,WeatherDisplay:10.37,2013-09-12 23:42:00,
2013-09-12 18:47:00,79.2,54.7,29.96,East,99,0.0,0.0,43,0.00,CLR,,0.00,WeatherDisplay:10.37,2013-09-12 23:47:00,
2013-09-12 18:52:00,79.0,54.6,29.96,NW,324,0.0,2.3,43,0.00,CLR,,0.00,WeatherDisplay:10.37,2013-09-12 23:52:00,
2013-09-12 18:57:00,79.0,54.6,29.96,North,353,0.0,0.0,43,0.00,CLR,,0.00,WeatherDisplay:10.37,2013-09-12 23:57:00,
2013-09-12 19:02:00,78.8,56.3,29.96,North,353,0.0,0.0,46,0.00,CLR,,0.00,WeatherDisplay:10.37,2013-09-13 00:02:00,
2013-09-12 19:07:00,78.6,56.1,29.96,NNW,348,0.0,0.0,46,0.00,CLR,,0.00,WeatherDisplay:10.37,2013-09-13 00:07:00,
2013-09-12 19:12:00,78.8,56.3,29.96,North,0,0.0,0.0,46,0.00,CLR,,0.00,WeatherDisplay:10.37,2013-09-13 00:12:00,
2013-09-12 19:17:00,78.8,56.3,29.96,NE,36,0.0,0.0,46,0.00,CLR,,0.00,WeatherDisplay:10.37,2013-09-13 00:17:00,
2013-09-12 19:22:00,78.8,56.3,29.96,NNW,331,2.2,4.0,46,0.00,CLR,,0.00,WeatherDisplay:10.37,2013-09-13 00:22:00,
2013-09-12 19:27:00,79.0,56.4,29.96,NE,47,0.0,0.0,46,0.00,CLR,,0.00,WeatherDisplay:10.37,2013-09-13 00:27:00,
2013-09-12 19:32:00,79.0,56.4,29.96,North,7,0.0,2.3,46,0.00,CLR,,0.00,WeatherDisplay:10.37,2013-09-13 00:32:00,
2013-09-12 19:37:00,79.0,56.4,29.96,NNE,23,0.0,0.0,46,0.00,CLR,,0.00,WeatherDisplay:10.37,2013-09-13 00:37:00,
2013-09-12 19:42:00,78.8,56.3,29.96,NNE,21,0.0,0.0,46,0.00,CLR,,0.00,WeatherDisplay:10.37,2013-09-13 00:42:00,
2013-09-12 19:47:00,78.6,56.1,29.96,NNE,21,0.0,0.0,46,0.00,CLR,,0.00,WeatherDisplay:10.37,2013-09-13 00:47:00,
2013-09-12 19:52:00,78.4,55.9,29.96,NNE,21,0.0,0.0,46,0.00,CLR,,0.00,WeatherDisplay:10.37,2013-09-13 00:52:00,
2013-09-12 19:57:00,78.3,55.8,29.96,NNE,21,0.0,0.0,46,0.00,CLR,,0.00,WeatherDisplay:10.37,2013-09-13 00:57:00,
2013-09-12 20:02:00,78.1,56.2,29.96,NNE,21,0.0,0.0,47,0.00,CLR,,0.00,WeatherDisplay:10.37,2013-09-13 01:02:00,
2013-09-12 20:07:00,77.9,56.0,29.96,NNE,21,0.0,0.0,47,0.00,CLR,,0.00,WeatherDisplay:10.37,2013-09-13 01:07:00,
2013-09-12 20:12:00,77.7,55.9,29.96,NNE,21,0.0,0.0,47,0.00,CLR,,0.00,WeatherDisplay:10.37,2013-09-13 01:12:00,
2013-09-12 20:17:00,77.5,55.7,29.96,NNE,21,0.0,0.0,47,0.00,CLR,,0.00,WeatherDisplay:10.37,2013-09-13 01:17:00,
2013-09-12 20:22:00,77.4,55.6,29.96,NE,36,0.0,0.0,47,0.00,CLR,,0.00,WeatherDisplay:10.37,2013-09-13 01:22:00,
2013-09-12 20:27:00,77.4,55.6,29.96,NE,44,0.0,0.0,47,0.00,CLR,,0.00,WeatherDisplay:10.37,2013-09-13 01:27:00,
2013-09-12 20:32:00,77.2,55.4,29.96,NE,44,0.0,0.0,47,0.00,CLR,,0.00,WeatherDisplay:10.37,2013-09-13 01:32:00,
2013-09-12 20:37:00,77.2,55.4,29.96,NE,44,0.0,0.0,47,0.00,CLR,,0.00,WeatherDisplay:10.37,2013-09-13 01:37:00,
2013-09-12 20:42:00,76.8,55.6,29.96,NE,44,0.0,0.0,48,0.00,CLR,,0.00,WeatherDisplay:10.37,2013-09-13 01:42:00,
2013-09-12 20:47:00,76.6,55.5,29.96,NE,44,0.0,0.0,48,0.00,CLR,,0.00,WeatherDisplay:10.37,2013-09-13 01:47:00,
2013-09-12 20:52:00,76.5,55.3,29.96,NE,44,0.0,0.0,48,0.00,CLR,,0.00,WeatherDisplay:10.37,2013-09-13 01:52:00,
2013-09-12 20:57:00,76.3,55.1,29.96,NE,44,0.0,0.0,48,0.00,CLR,,0.00,WeatherDisplay:10.37,2013-09-13 01:57:00,
2013-09-12 21:02:00,76.5,55.3,29.96,NE,44,0.0,0.0,48,0.00,CLR,,0.00,WeatherDisplay:10.37,2013-09-13 02:02:00,
2013-09-12 21:07:00,76.3,55.1,29.96,NE,44,0.0,0.0,48,0.00,CLR,,0.00,WeatherDisplay:10.37,2013-09-13 02:07:00,
2013-09-12 21:12:00,76.1,55.0,29.96,NE,44,0.0,0.0,48,0.00,CLR,,0.00,WeatherDisplay:10.37,2013-09-13 02:12:00,
2013-09-12 21:17:00,76.1,55.5,29.96,NE,44,0.0,0.0,49,0.00,CLR,,0.00,WeatherDisplay:10.37,2013-09-13 02:17:00,
2013-09-12 21:22:00,75.6,55.1,29.96,NE,44,0.0,0.0,49,0.00,CLR,,0.00,WeatherDisplay:10.37,2013-09-13 02:22:00,
2013-09-12 21:27:00,75.4,54.9,29.96,NE,44,0.0,0.0,49,0.00,CLR,,0.00,WeatherDisplay:10.37,2013-09-13 02:27:00,
2013-09-12 21:32:00,75.2,55.3,29.96,NE,44,0.0,0.0,50,0.00,CLR,,0.00,WeatherDisplay:10.37,2013-09-13 02:32:00,
2013-09-12 21:37:00,75.0,55.7,29.96,NE,44,0.0,0.0,51,0.00,CLR,,0.00,WeatherDisplay:10.37,2013-09-13 02:37:00,
2013-09-12 21:42:00,75.2,55.8,29.96,NE,44,0.0,0.0,51,0.00,CLR,,0.00,WeatherDisplay:10.37,2013-09-13 02:42:00,
2013-09-12 21:47:00,75.2,55.8,29.99,NE,44,0.0,0.0,51,0.00,CLR,,0.00,WeatherDisplay:10.37,2013-09-13 02:47:00,
2013-09-12 21:52:00,75.0,55.7,29.99,NE,44,0.0,0.0,51,0.00,CLR,,0.00,WeatherDisplay:10.37,2013-09-13 02:52:00,
2013-09-12 21:57:00,75.0,55.7,29.99,NE,44,0.0,0.0,51,0.00,CLR,,0.00,WeatherDisplay:10.37,2013-09-13 02:57:00,
2013-09-12 22:02:00,75.0,56.2,29.96,NNE,31,0.0,0.0,52,0.00,CLR,,0.00,WeatherDisplay:10.37,2013-09-13 03:02:00,
2013-09-12 22:07:00,74.8,56.0,29.96,NNE,30,0.0,0.0,52,0.00,CLR,,0.00,WeatherDisplay:10.37,2013-09-13 03:07:00,
2013-09-12 22:12:00,74.8,56.0,29.96,NNE,25,0.0,0.0,52,0.00,CLR,,0.00,WeatherDisplay:10.37,2013-09-13 03:12:00,
2013-09-12 22:17:00,74.8,56.6,29.99,NNE,24,0.0,0.0,53,0.00,CLR,,0.00,WeatherDisplay:10.37,2013-09-13 03:17:00,
2013-09-12 22:22:00,74.8,56.6,29.99,NNE,24,0.0,0.0,53,0.00,CLR,,0.00,WeatherDisplay:10.37,2013-09-13 03:22:00,
2013-09-12 22:27:00,74.8,56.6,29.99,NNE,24,0.0,0.0,53,0.00,CLR,,0.00,WeatherDisplay:10.37,2013-09-13 03:27:00,
2013-09-12 22:32:00,74.8,56.6,29.99,NNE,24,0.0,0.0,53,0.00,CLR,,0.00,WeatherDisplay:10.37,2013-09-13 03:32:00,
2013-09-12 22:37:00,74.8,56.6,29.99,NNE,24,0.0,0.0,53,0.00,CLR,,0.00,WeatherDisplay:10.37,2013-09-13 03:37:00,
2013-09-12 22:42:00,74.7,56.4,29.99,NNE,24,0.0,0.0,53,0.00,CLR,,0.00,WeatherDisplay:10.37,2013-09-13 03:42:00,
2013-09-12 22:47:00,74.5,56.2,29.99,NNE,24,0.0,0.0,53,0.00,CLR,,0.00,WeatherDisplay:10.37,2013-09-13 03:47:00,
2013-09-12 22:52:00,74.5,56.7,29.99,NNE,24,0.0,0.0,54,0.00,CLR,,0.00,WeatherDisplay:10.37,2013-09-13 03:52:00,
2013-09-12 22:57:00,74.3,56.6,29.99,NNE,24,0.0,0.0,54,0.00,CLR,,0.00,WeatherDisplay:10.37,2013-09-13 03:57:00,
2013-09-12 23:01:00,74.3,56.6,29.99,NNE,21,0.0,0.0,54,0.00,CLR,,0.00,WeatherDisplay:10.37,2013-09-13 04:01:00,
2013-09-12 23:02:00,74.3,56.6,29.96,NNE,21,0.0,0.0,54,0.00,CLR,,0.00,WeatherDisplay:10.37,2013-09-13 04:02:00,
2013-09-12 23:03:00,74.3,56.6,29.96,NNE,21,0.0,0.0,54,0.00,CLR,,0.00,WeatherDisplay:10.37,2013-09-13 04:03:00,
2013-09-12 23:08:00,74.1,56.4,29.96,NNE,21,0.0,0.0,54,0.00,CLR,,0.00,WeatherDisplay:10.37,2013-09-13 04:08:00,
2013-09-12 23:09:00,74.1,56.4,29.96,NNE,21,0.0,0.0,54,0.00,CLR,,0.00,WeatherDisplay:10.37,2013-09-13 04:09:00,
2013-09-12 23:14:00,73.9,56.8,29.96,NNE,20,0.0,0.0,55,0.00,CLR,,0.00,WeatherDisplay:10.37,2013-09-13 04:14:00,
2013-09-12 23:19:00,73.9,57.3,29.96,NNE,20,0.0,0.0,56,0.00,CLR,,0.00,WeatherDisplay:10.37,2013-09-13 04:19:00,
2013-09-12 23:24:00,74.1,57.4,29.96,NNE,20,0.0,0.0,56,0.00,CLR,,0.00,WeatherDisplay:10.37,2013-09-13 04:24:00,
2013-09-12 23:29:00,74.1,57.4,29.96,NNE,20,0.0,0.0,56,0.00,CLR,,0.00,WeatherDisplay:10.37,2013-09-13 04:29:00,
2013-09-12 23:34:00,74.1,57.4,29.96,NNE,20,0.0,0.0,56,0.00,CLR,,0.00,WeatherDisplay:10.37,2013-09-13 04:34:00,
2013-09-12 23:39:00,74.3,58.1,29.96,NNE,20,0.0,0.0,57,0.00,CLR,,0.00,WeatherDisplay:10.37,2013-09-13 04:39:00,
2013-09-12 23:44:00,74.5,58.2,29.96,NNE,20,0.0,0.0,57,0.00,CLR,,0.00,WeatherDisplay:10.37,2013-09-13 04:44:00,
2013-09-12 23:49:00,74.5,58.2,29.96,NNE,20,0.0,0.0,57,0.00,CLR,,0.00,WeatherDisplay:10.37,2013-09-13 04:49:00,
2013-09-12 23:54:00,74.5,57.8,29.96,NNE,20,0.0,0.0,56,0.00,CLR,,0.00,WeatherDisplay:10.37,2013-09-13 04:54:00,
2013-09-12 23:59:00,74.5,57.8,29.96,NNE,20,0.0,0.0,56,0.00,CLR,,0.00,WeatherDisplay:10.37,2013-09-13 04:59:00,